Location: ?????????
(41.2393°N, 22.9479°E)
Time: 23:31:05
(UTC+00:00)

IRS-1C - Pass Details

Date: 17 November 2025
Orbit: 813 x 814 km, 99.0° (Epoch: 09 December)

Event Time Altitude Azimuth Distance (km) Brightness Sun altitude
Rises 15:53:46 0° 160° (SSE) 3,324 7.3 -9.0°
Reaches altitude 10° 15:56:06 10° 159° (SSE) 2,396 6.5 -9.4°
Maximum altitude 16:01:23 77° 74° (ENE) 839 4.1 -10.3°
Drops below altitude 10° 16:06:43 10° 349° (N) 2,411 6.5 -11.3°
Sets 16:09:04 0° 348° (NNW) 3,347 7.3 -11.7°
